Flag for New Zealand Weather past 2 weeks in Wellington, New Zealand

Now
55 °F

Passing clouds.


Feels Like: 54 °F
Forecast: 50 / 62 °F
Wind: 6 mph from Southwest

Location: Wellington Airport

Current Time: Apr 19, 2015 at 12:26:42 AM

Latest Report: Apr 19, 2015 at 12:00 AM


Visibility: N/A

Pressure: 30.30 "Hg

Humidity: 88%

Dew point: 52 °F

Location of WellingtonLocation

Historic Weather in Wellington — Graph

°F

Wellington temperature yesterday

Maximum temperature yesterday: 59 °F (at 12:00 AM)
Minimum temperature yesterday: 54 °F (at 3:00 AM)
Average temperature yesterday: 56 °F

Past Weeks' High & Low Weather Summary

 TemperatureHumidityPressure
High70 °F (Apr 6, 11:30 AM)100% (Apr 8, 2:30 PM)30.30 "Hg (Apr 8, 2:30 PM)
Low45 °F (Apr 15, 3:30 AM)47% (Apr 14, 11:00 PM)29.12 "Hg (Apr 13, 6:30 AM)
Average59 °F77%29.91 "Hg
* Reported Midnight between Apr 3 and Apr 4 — Apr 18 11:30 PM, Wellington, Weather by CustomWeather, © 2015

Note: Actual official high and low records may vary slightly from our data, if they occured in-between our weather recording intervals... More about our weather records

Advertising

Wellington weather history for previous 24 hours

 ConditionsComfort  
Time TempWeatherWind HumidityBarometerVisibility
11:30 PM
Sat, Apr 18
55 °FPassing clouds.7 mph88%30.30 "HgN/A
11:00 PM55 °FPassing clouds.8 mph88%30.30 "HgN/A
10:30 PM55 °FPassing clouds.9 mph88%30.30 "HgN/A
10:00 PM55 °FMostly cloudy.8 mph88%30.30 "HgN/A
9:30 PM55 °FOvercast.10 mph88%30.30 "HgN/A
9:00 PM55 °FOvercast.12 mph88%30.30 "HgN/A
8:30 PM55 °FOvercast.14 mph88%30.27 "HgN/A
8:00 PM55 °FPassing clouds.16 mph88%30.27 "HgN/A
7:30 PM55 °FPassing clouds.14 mph88%30.27 "HgN/A
7:00 PM55 °FOvercast.16 mph88%30.27 "HgN/A
6:30 PM55 °FOvercast.18 mph88%30.27 "HgN/A
6:00 PM55 °FPassing clouds.18 mph88%30.27 "HgN/A
5:30 PM55 °FPassing clouds.20 mph88%30.24 "HgN/A
5:00 PM55 °FPassing clouds.18 mph88%30.24 "HgN/A
4:30 PM55 °FBroken clouds.17 mph88%30.24 "HgN/A
4:00 PM55 °FBroken clouds.17 mph88%30.24 "Hg6 mi
3:30 PM55 °FCloudy.20 mph88%30.24 "HgN/A
3:00 PM57 °FMore clouds than sun.18 mph82%30.24 "HgN/A
2:30 PM57 °FBroken clouds.18 mph82%30.24 "HgN/A
2:00 PM57 °FMostly cloudy.17 mph82%30.24 "HgN/A
1:30 PM57 °FMore clouds than sun.18 mph82%30.24 "HgN/A
1:00 PM57 °FBroken clouds.16 mph82%30.24 "HgN/A
12:30 PM57 °FOvercast.17 mph82%30.24 "HgN/A
12:00 PM57 °FOvercast.20 mph77%30.24 "HgN/A
11:30 AM57 °FPartly sunny.21 mph82%30.24 "HgN/A
11:00 AM55 °FOvercast.20 mph82%30.24 "HgN/A
10:30 AM55 °FPartly sunny.18 mph82%30.24 "HgN/A
10:00 AM55 °FMore clouds than sun.20 mph82%30.21 "HgN/A
9:30 AM55 °FPartly sunny.21 mph88%30.18 "HgN/A
8:30 AM55 °FScattered clouds.15 mph88%30.18 "HgN/A
8:00 AM55 °FPartly sunny.12 mph88%30.15 "HgN/A
7:30 AM55 °FMore clouds than sun.13 mph88%30.15 "HgN/A
7:00 AM55 °FPassing clouds.15 mph88%30.15 "HgN/A
6:30 AM55 °FDrizzle. More clouds than sun.14 mph88%30.12 "HgN/A
6:00 AM55 °FSprinkles. Broken clouds.10 mph94%30.09 "HgN/A
5:30 AM55 °FDrizzle. Overcast.10 mph88%30.09 "HgN/A
5:00 AM55 °FPassing clouds.14 mph94%30.07 "HgN/A
4:30 AM55 °FPassing clouds.9 mph94%30.07 "HgN/A
4:00 AM54 °FDrizzle. Overcast.No wind100%30.04 "HgN/A
3:30 AM54 °FLight rain. Partly cloudy.5 mph100%30.04 "HgN/A
3:00 AM54 °FLight rain. Partly cloudy.7 mph94%30.04 "HgN/A
2:30 AM55 °FLight rain. Mostly cloudy.7 mph94%30.07 "Hg3 mi
2:00 AM57 °FSprinkles. Mostly cloudy.2 mph88%30.07 "HgN/A
1:30 AM57 °FDrizzle. Mostly cloudy.7 mph88%30.07 "HgN/A
1:00 AM57 °FSprinkles. Partly cloudy.7 mph88%30.07 "HgN/A
12:30 AM59 °FSprinkles. Passing clouds.8 mph82%30.04 "HgN/A
12:00 AM59 °FSprinkles. Passing clouds.9 mph77%30.04 "HgN/A
Weather by CustomWeather, © 2015

See weather overviewHow to use our weather pages